Simultaneous Nadir Overpasses (SNOs) Predictions

Prediction of SNOs between GOES-16 and FY3D Satellite Orbit:

Table of predicted SNOs for the next 14.0 days since TLE Epoch: 8/10/2024
Index Date Time (GOES-16) GOES-16 Lat,Lon FY3D Lat,Lon Distance(km) Time Diff (sec)
1 08/11/2024 07:48:08 0.05, -75.21 0.71, -78.22 342.18 80
2 08/12/2024 07:29:32 0.05, -75.22 -0.29, -73.70 172.27 80
3 08/13/2024 19:51:42 -0.04, -75.22 -0.93, -79.03 434.79 80
4 08/14/2024 19:35:48 -0.04, -75.22 0.13, -74.53 79.74 80
5 08/17/2024 07:36:34 0.02, -75.24 0.06, -75.30 8.01 80
6 08/19/2024 19:40:10 0.00, -75.26 -0.18, -76.13 99.13 80
7 08/20/2024 19:24:14 -0.00, -75.27 0.84, -71.62 416.40 80
8 08/22/2024 07:43:35 0.00, -75.30 0.34, -76.92 183.51 80
9 08/23/2024 07:24:59 0.01, -75.32 -0.63, -72.40 332.51 80
